Wind_Speed
5 7 7 8 9 9 10 9 7 6 6 5 5 5 6 6 6 6 5 6 6 7 7 10 17 19 19 16 14 12 10 7 6 5 4 4 2 1 5 11 14 14 14
4 5 6 8 9 10 10 10 8 6 6 5 5 6 6 7 7 6 5 5 5 5 4 5 14 18 19 18 16 14 11 9 7 6 5 4 3 2 2 5 11 14 16
1 3 5 7 8 9 10 11 10 7 6 6 6 6 6 7 6 5 4 4 4 4 4 1 9 14 17 18 17 15 14 11 9 8 7 6 4 3 2 2 4 9 14
1 2 4 7 8 9 10 10 11 9 6 7 7 8 7 6 6 5 4 3 3 2 2 1 6 10 14 15 15 14 14 14 12 10 9 7 6 4 3 2 2 5 10
3 3 4 7 9 10 10 10 10 9 7 7 8 9 8 6 5 4 3 3 3 3 1 2 4 7 9 11 12 11 11 14 13 11 10 8 7 5 4 3 3 4 8
4 3 4 7 10 11 11 10 10 11 9 8 9 10 9 7 5 4 4 3 4 5 5 4 4 6 7 8 8 9 9 11 12 11 10 8 7 5 5 5 5 5 8
4 2 4 7 10 12 12 11 10 11 11 10 9 10 9 8 6 6 5 6 6 7 7 7 7 6 7 7 7 8 9 10 10 9 8 8 7 7 8 9 9 9 9
3 2 4 8 10 11 12 11 11 12 12 12 10 10 9 8 7 7 8 8 8 8 9 9 10 9 8 8 9 9 10 11 11 10 9 8 7 7 8 10 10 11 11
4 2 4 7 9 11 11 11 11 12 13 13 11 10 10 8 7 8 9 10 10 10 10 11 11 12 11 10 10 11 12 13 13 12 11 10 8 8 8 9 10 11 10
5 3 5 7 9 11 12 11 11 12 14 14 12 11 10 9 9 10 10 11 10 10 11 11 12 13 13 13 13 13 14 15 15 14 13 12 10 9 8 9 10 10 8
5 3 5 7 9 11 12 12 12 13 15 15 14 13 12 10 10 11 12 12 11 10 11 11 11 12 13 14 15 16 17 17 17 16 15 13 12 11 10 10 11 11 10
4 5 6 8 9 11 12 13 13 14 15 15 15 15 13 11 11 12 13 13 12 10 10 11 11 12 13 14 16 17 19 19 18 17 16 15 14 13 12 12 12 12 12
6 7 8 9 10 11 13 14 14 15 15 15 15 16 14 12 12 13 14 14 12 11 10 11 11 11 12 13 16 18 19 20 20 19 17 16 16 15 14 14 14 14 13
9 9 10 10 11 11 12 14 15 15 15 14 14 15 14 12 12 12 14 14 13 11 11 11 10 10 11 12 14 16 18 21 21 21 19 18 18 17 16 17 17 16 15
12 12 13 12 13 13 13 14 15 15 15 15 14 13 13 13 12 12 13 14 13 11 11 11 11 10 10 11 12 14 17 19 20 20 19 18 18 17 17 18 19 19 18
16 16 16 15 15 15 14 15 15 15 15 15 14 13 13 13 12 12 13 14 14 13 12 12 11 10 10 10 11 12 15 17 19 18 17 16 16 16 16 17 18 20 20
19 19 18 18 17 17 17 17 17 16 16 15 14 13 13 13 12 13 13 14 14 14 13 13 12 11 10 10 10 11 13 16 18 18 18 16 15 15 15 16 17 19 20
20 21 20 20 19 19 18 18 18 17 16 15 14 13 13 13 13 13 14 15 15 15 14 14 13 12 11 10 10 10 12 14 16 17 17 18 17 17 16 16 17 18 19
21 22 22 21 21 21 20 19 18 17 16 15 15 15 15 14 13 14 15 15 16 15 15 14 14 13 12 11 11 10 11 13 14 15 16 17 19 19 18 17 16 17 17
21 22 22 22 23 23 21 19 18 18 19 18 18 17 16 15 14 14 14 16 16 16 16 16 16 15 14 12 11 10 10 10 12 13 14 16 18 19 20 19 17 16 16
21 22 23 24 24 24 23 20 19 19 21 22 21 19 18 17 16 15 14 15 16 17 17 17 18 17 16 14 12 11 9 8 9 10 12 15 17 19 20 20 19 17 16
22 23 24 24 25 25 24 23 22 22 23 24 23 22 22 20 19 18 16 16 16 18 19 20 20 19 18 17 15 13 11 9 8 8 10 13 15 17 19 20 20 19 18
23 25 25 25 26 26 26 26 26 25 26 26 26 26 25 24 22 21 19 19 19 20 21 23 22 22 21 20 18 16 13 12 11 10 9 10 12 15 17 19 20 20 20
25 25 25 25 27 28 28 28 28 29 29 29 29 28 27 26 25 24 23 22 23 23 24 26 26 26 24 23 21 19 17 15 13 12 11 10 10 12 14 16 17 18 19
26 26 26 27 28 29 29 29 30 30 31 31 30 30 29 29 28 26 25 25 26 28 28 28 29 29 28 26 24 22 20 19 17 14 13 13 13 13 13 13 15 16 17
27 27 27 27 27 28 29 30 30 31 31 31 29 29 28 28 28 27 27 27 27 28 30 31 30 30 31 29 27 25 23 22 19 17 16 15 15 15 15 15 14 15 15
Wind_Direction
73 70 56 43 35 28 21 14 6 358 344 332 327 330 328 326 323 314 310 313 318 305 279 228 215 204 197 194 193 191 190 187 186 190 178 158 142 161 207 216 216 217 214
82 67 47 35 26 22 18 11 3 352 337 323 319 326 329 333 331 320 312 321 332 340 339 225 213 205 198 197 199 199 199 196 194 192 187 167 153 107 112 202 210 213 208
101 50 27 19 15 14 12 8 2 350 331 317 313 321 329 337 339 327 315 317 330 354 14 159 199 197 199 198 202 206 207 203 195 188 183 177 175 160 119 148 190 202 201
230 342 358 359 360 2 2 3 2 354 330 312 308 317 326 333 339 333 316 307 307 333 16 121 187 194 197 200 207 210 207 202 192 188 185 182 181 175 163 157 162 182 191
243 288 325 345 353 354 353 354 359 357 335 313 307 311 318 321 328 332 324 302 273 258 236 161 173 188 190 192 193 195 197 189 182 183 187 186 186 186 191 195 201 198 202
243 290 320 341 354 356 352 345 350 355 346 323 312 312 314 312 308 310 307 289 262 245 229 204 179 176 174 177 179 181 185 178 175 179 183 187 196 210 227 233 238 237 224
232 289 340 350 356 357 352 342 340 346 345 332 318 315 312 307 293 287 286 279 265 250 238 225 210 195 188 185 185 184 185 186 184 185 194 205 217 234 245 250 251 247 242
218 276 339 350 352 353 350 342 337 340 339 331 321 316 312 301 284 275 277 277 270 259 246 236 227 218 208 201 198 197 196 199 200 202 215 229 236 245 246 247 249 248 247
212 267 328 341 345 347 349 344 336 334 334 329 320 313 311 301 282 270 273 275 271 263 253 242 235 229 222 214 209 205 204 207 209 214 226 240 248 254 248 241 241 240 238
217 266 321 334 339 343 346 344 337 331 329 324 317 309 304 295 281 269 271 274 270 264 256 246 239 233 228 223 218 214 211 213 217 223 232 241 249 256 251 236 231 223 218
227 279 320 328 336 341 344 344 339 332 328 322 315 307 299 290 278 269 268 271 269 263 255 247 239 233 230 225 221 219 218 220 225 231 238 243 247 251 248 234 224 213 204
255 293 318 325 333 340 345 344 339 332 326 322 316 309 300 288 275 266 264 266 268 263 253 244 235 232 231 227 223 222 222 225 229 235 241 245 247 249 244 231 219 209 200
277 293 308 315 325 335 343 345 340 330 323 319 313 309 301 291 274 262 259 261 263 260 251 240 232 231 233 231 228 226 226 228 231 237 241 246 250 250 243 229 218 209 202
286 291 297 305 315 324 334 342 340 332 320 313 309 305 299 292 276 260 255 255 258 257 245 236 232 233 235 234 231 230 230 230 233 237 242 246 249 247 239 226 218 212 208
288 289 292 298 305 313 323 333 334 328 320 310 302 298 295 292 278 260 251 250 254 253 243 236 234 234 236 236 234 234 232 231 232 235 238 242 243 240 233 224 218 215 212
290 291 293 297 302 307 316 327 331 325 314 306 297 290 290 290 280 263 250 247 250 250 243 235 231 231 233 232 235 235 231 229 229 230 233 235 234 231 226 221 218 216 215
290 291 292 296 301 306 312 321 326 323 312 299 289 284 285 286 278 268 255 247 247 247 243 237 230 227 226 229 237 238 234 229 228 230 231 229 225 222 220 219 218 216 215
288 289 291 294 298 302 307 311 315 314 304 293 285 284 283 281 274 268 259 251 247 245 243 238 231 222 221 228 238 243 238 231 228 230 230 225 220 218 219 219 217 215 215
288 289 289 290 293 297 301 304 303 300 295 286 282 283 282 277 272 266 259 252 247 243 241 238 230 223 223 228 236 243 240 231 226 226 224 221 217 216 216 217 215 215 216
289 288 288 288 289 291 294 296 293 289 285 278 278 280 281 278 272 263 260 253 246 243 242 237 230 226 226 227 232 239 237 223 219 218 217 215 214 213 212 212 211 212 214
288 287 288 288 288 289 290 290 288 284 280 276 273 272 274 274 270 262 258 253 251 247 244 238 232 228 229 226 227 231 230 219 213 214 214 214 215 214 212 210 209 210 212
285 285 286 287 287 289 290 289 285 280 275 273 271 269 267 267 266 261 259 258 255 251 246 239 234 230 229 224 222 226 229 226 219 216 216 216 217 218 218 216 214 213 214
283 285 287 288 289 290 290 289 286 283 279 275 271 267 265 263 262 259 257 257 255 254 250 242 236 233 231 225 222 221 226 227 225 223 222 220 220 220 221 223 223 223 223
282 286 289 289 290 290 289 288 285 282 279 275 270 267 264 260 256 256 254 257 257 256 256 249 241 236 231 226 223 223 225 226 226 227 227 227 226 224 224 225 227 229 230
285 289 290 291 292 291 289 287 284 281 278 275 272 268 263 259 254 252 252 254 256 256 256 252 246 238 230 226 224 224 226 227 227 228 231 234 235 233 230 229 229 229 230
287 290 292 293 294 292 290 287 284 281 278 275 272 268 264 259 255 253 252 253 256 256 255 251 246 238 230 227 225 224 226 229 230 231 234 238 241 242 241 237 233 231 232
Height
5900 5899 5897 5895 5894 5892 5890 5889 5887 5886 5885 5883 5882 5881 5881 5880 5879 5878 5877 5877 5875 5874 5873 5873 5874 5878 5880 5883 5885 5886 5887 5888 5889 5890 5890 5891 5892 5892 5892 5892 5894 5896 5898
5900 5899 5898 5896 5894 5892 5890 5889 5887 5886 5885 5883 5882 5881 5880 5880 5879 5878 5877 5876 5875 5874 5872 5872 5873 5876 5878 5881 5884 5885 5887 5888 5889 5890 5890 5891 5892 5892 5892 5892 5893 5894 5896
5900 5899 5897 5896 5894 5892 5890 5889 5887 5886 5885 5883 5882 5881 5880 5880 5879 5877 5876 5876 5875 5874 5873 5872 5873 5875 5877 5880 5882 5884 5886 5887 5888 5890 5890 5891 5891 5892 5892 5892 5892 5893 5894
5899 5898 5897 5896 5894 5892 5890 5889 5887 5885 5884 5883 5882 5881 5880 5879 5878 5877 5876 5876 5875 5874 5874 5874 5874 5875 5877 5879 5881 5883 5884 5886 5887 5889 5890 5891 5891 5892 5892 5892 5892 5893 5894
5898 5898 5897 5895 5893 5892 5890 5888 5886 5885 5883 5882 5881 5880 5879 5879 5878 5877 5876 5875 5875 5874 5874 5875 5875 5876 5877 5879 5880 5881 5883 5885 5887 5888 5889 5890 5891 5891 5892 5892 5892 5893 5894
5897 5897 5896 5894 5893 5891 5889 5887 5886 5884 5882 5881 5880 5879 5878 5877 5877 5876 5875 5875 5874 5874 5874 5875 5876 5877 5878 5879 5880 5881 5882 5884 5886 5887 5888 5889 5890 5890 5891 5891 5892 5893 5893
5896 5896 5895 5893 5892 5890 5888 5886 5885 5883 5882 5880 5879 5878 5877 5876 5876 5875 5874 5874 5873 5874 5874 5875 5876 5877 5878 5879 5880 5881 5882 5884 5885 5887 5887 5888 5889 5889 5890 5890 5891 5892 5892
5895 5894 5894 5892 5891 5889 5887 5886 5884 5882 5880 5879 5877 5876 5875 5875 5874 5874 5873 5872 5872 5872 5873 5874 5875 5876 5877 5878 5880 5881 5882 5883 5885 5886 5886 5887 5887 5888 5888 5889 5889 5890 5890
5893 5893 5892 5891 5889 5888 5886 5885 5883 5881 5879 5877 5875 5874 5873 5873 5873 5872 5871 5870 5870 5870 5871 5872 5873 5875 5876 5877 5878 5880 5881 5882 5883 5884 5885 5886 5886 5886 5887 5887 5888 5888 5888
5892 5891 5891 5889 5888 5886 5885 5883 5881 5879 5877 5875 5873 5872 5871 5871 5870 5870 5869 5868 5868 5868 5869 5870 5871 5872 5874 5875 5876 5878 5879 5881 5882 5883 5883 5884 5884 5885 5885 5885 5886 5886 5887
5890 5890 5889 5888 5886 5885 5883 5882 5880 5877 5875 5873 5871 5870 5869 5868 5868 5868 5867 5866 5866 5866 5867 5868 5869 5870 5871 5873 5874 5875 5877 5878 5879 5880 5881 5882 5882 5883 5883 5884 5885 5885 5886
5889 5888 5887 5886 5885 5883 5882 5880 5878 5875 5873 5871 5869 5868 5867 5866 5865 5865 5864 5864 5864 5864 5865 5865 5866 5867 5869 5870 5872 5873 5874 5875 5877 5878 5879 5879 5880 5881 5881 5882 5883 5885 5886
5887 5886 5885 5884 5883 5882 5880 5878 5876 5873 5871 5869 5867 5865 5865 5864 5863 5862 5862 5861 5862 5862 5863 5863 5864 5865 5866 5867 5869 5870 5871 5872 5874 5875 5876 5877 5878 5878 5879 5880 5882 5883 5885
5885 5884 5883 5882 5881 5879 5878 5876 5873 5871 5869 5866 5864 5863 5862 5861 5860 5859 5859 5859 5859 5860 5861 5861 5862 5863 5864 5865 5866 5867 5868 5869 5870 5871 5873 5874 5875 5876 5876 5878 5880 5882 5883
5882 5881 5881 5880 5878 5877 5875 5873 5871 5868 5866 5864 5862 5860 5859 5859 5858 5857 5856 5857 5857 5858 5859 5859 5860 5861 5861 5862 5863 5864 5865 5866 5867 5868 5869 5870 5871 5872 5873 5875 5877 5879 5881
5878 5878 5878 5877 5875 5874 5872 5870 5867 5865 5863 5861 5859 5858 5856 5856 5855 5854 5854 5854 5855 5855 5856 5857 5858 5859 5859 5860 5860 5861 5861 5862 5864 5865 5866 5867 5868 5869 5870 5872 5874 5876 5879
5875 5874 5874 5873 5872 5870 5868 5866 5864 5862 5860 5858 5856 5855 5854 5853 5852 5852 5851 5851 5852 5853 5854 5855 5856 5856 5857 5858 5858 5859 5859 5860 5861 5862 5863 5864 5865 5867 5868 5870 5872 5874 5877
5871 5871 5870 5869 5868 5866 5864 5862 5860 5859 5857 5855 5854 5852 5851 5850 5849 5849 5848 5848 5849 5850 5851 5852 5854 5855 5855 5856 5856 5857 5857 5857 5858 5859 5860 5862 5863 5865 5866 5868 5870 5872 5874
5868 5867 5866 5865 5864 5862 5860 5859 5857 5855 5854 5853 5851 5849 5848 5847 5846 5846 5845 5845 5846 5847 5848 5850 5851 5852 5853 5854 5854 5855 5855 5855 5856 5857 5858 5859 5861 5862 5864 5866 5868 5870 5872
5863 5862 5861 5860 5859 5858 5856 5855 5854 5852 5851 5850 5848 5846 5845 5844 5843 5843 5842 5842 5843 5844 5845 5846 5848 5850 5851 5851 5852 5853 5853 5853 5854 5854 5855 5856 5858 5859 5861 5864 5866 5868 5869
5859 5858 5856 5855 5854 5853 5852 5850 5850 5848 5847 5846 5844 5843 5842 5840 5839 5839 5839 5839 5840 5840 5841 5843 5844 5846 5847 5849 5850 5851 5852 5852 5852 5853 5853 5854 5856 5857 5859 5861 5863 5865 5867
5854 5853 5852 5850 5849 5848 5847 5845 5845 5843 5842 5841 5839 5838 5837 5836 5835 5835 5836 5836 5836 5837 5837 5838 5840 5842 5844 5845 5847 5848 5850 5851 5851 5851 5852 5853 5854 5855 5857 5859 5860 5862 5865
5849 5848 5846 5845 5843 5842 5841 5840 5838 5837 5836 5835 5834 5833 5832 5831 5830 5830 5831 5831 5832 5832 5833 5834 5836 5838 5840 5842 5844 5846 5847 5849 5850 5850 5851 5852 5853 5854 5855 5857 5858 5860 5862
5844 5842 5841 5839 5837 5836 5835 5833 5832 5830 5829 5828 5827 5826 5825 5825 5825 5824 5824 5825 5826 5827 5828 5829 5831 5833 5836 5838 5840 5842 5844 5846 5848 5849 5850 5850 5851 5852 5853 5855 5856 5858 5860
5838 5836 5835 5833 5831 5830 5828 5826 5825 5823 5821 5820 5819 5818 5818 5818 5818 5818 5819 5819 5820 5821 5822 5823 5825 5828 5830 5833 5835 5837 5839 5842 5844 5846 5848 5848 5849 5850 5851 5852 5854 5855 5857
5832 5830 5829 5827 5825 5823 5821 5819 5817 5815 5814 5812 5811 5810 5810 5810 5811 5812 5812 5813 5813 5814 5815 5816 5818 5821 5824 5827 5830 5832 5835 5837 5840 5842 5844 5845 5847 5848 5849 5850 5851 5852 5854